Simultaneous Nadir Overpasses (SNOs) Predictions

Prediction of SNOs between METOP-B and NOAA-19 Satellite Orbit:

Table of predicted SNOs for the next 14.0 days since TLE Epoch: 6/12/2020
Index Date (METOP-B) Time (METOP-B) Lat,Lon (METOP-B) SZA (METOP-B ) Date (NOAA-19) Time (NOAA-19) Lat,Lon (NOAA-19) SZA (NOAA-19 ) Distance(km) Time Diff (sec)
1 06/21/2020 18:05:16 -80.03, 111.13 122.68 06/21/2020 18:04:15 -80.04, 111.28 122.67 3.27 61
2 06/21/2020 18:55:55 80.05, -81.29 57.37 06/21/2020 18:55:13 80.03, -81.34 57.33 2.52 42
3 06/21/2020 19:46:37 -80.04, 85.96 122.65 06/21/2020 19:46:15 -80.02, 85.97 122.67 1.98 22
4 06/21/2020 20:37:17 80.04,-106.76 57.35 06/21/2020 20:37:13 80.02,-106.66 57.33 3.09 4
5 06/21/2020 21:27:59 -80.03, 60.49 122.67 06/21/2020 21:28:16 -80.03, 60.34 122.67 2.77 17
6 06/21/2020 22:18:39 80.02,-132.23 57.33 06/21/2020 22:19:14 80.03,-132.29 57.33 1.13 35
7 06/21/2020 23:09:21 -80.02, 35.01 122.69 06/21/2020 23:10:16 -80.02, 35.03 122.67 0.51 55




NCC Satellite Simultaneous Nadir Overpasses (SNOs) Prediction Service
